Pellston, MI

4:05 PM EDT on May 23, 2017 (GMT -0400)
Pellston Regional Airport Of Emmet County

Weather History for KPLN - March, 2012

Change the Weather History Date:

Tuesday, March 20, 2012

  Actual Average Record
Temperature  
Mean Temperature 66 °F -  
Max Temperature 84 °F 38 °F 84 °F (2012)
Min Temperature 51 °F 19 °F -14 °F (1965)
Cooling Degree Days 2    
Growing Degree Days 16 (Base 50)    
Moisture  
Dew Point 53 °F    
Average Humidity 68    
Maximum Humidity 100    
Minimum Humidity 28    
Precipitation  
Precipitation 0.00 in - - ()
Sea Level Pressure  
Sea Level Pressure 30.02 in    
Wind  
Wind Speed 4 mph (South)    
Max Wind Speed 16 mph    
Max Gust Speed 26 mph    
Visibility 10 miles    
Events      
Averages and records for this station are not official NWS values.
T = Trace of Precipitation, MM = Missing Value Source: NWS Daily Summary

Daily Weather History Graph

Daily Weather History Graph

Search for Another Location

Airport or City:

Trip Planner

Search our weather history database for the weather conditions in past years. The results will help you decide how hot, cold, wet, or windy it might be!

Date:

Astronomy

Mar. 20, 2012 Rise Set
Actual Time 7:41 AM EDT 7:52 PM EDT
Civil Twilight 7:11 AM EDT 8:22 PM EDT
Nautical Twilight 6:37 AM EDT 8:56 PM EDT
Astronomical Twilight 6:01 AM EDT 9:32 PM EDT
Moon 6:27 AM EDT (3/20) 6:17 PM EDT (3/20)
Length of Visible Light 13h 10m
Length of Day
12h 11m
Waning Crescent, 4% of the Moon is Illuminated
Mar 20
Waning Crescent
Mar 22
New
Mar 30
First Quarter
Apr 6
Full
Apr 13
Last Quarter

Hourly Weather History & Observations

Time (EDT) Temp. Heat Index Dew Point Humidity Pressure Visibility Wind Dir Wind Speed Gust Speed Precip Events Conditions
12:54 AM 51.1 °F - 48.9 °F 92% 30.00 in 10.0 mi Calm Calm - N/A   Clear
1:54 AM 52.0 °F - 50.0 °F 93% 30.01 in 10.0 mi SSE 3.5 mph - N/A   Clear
2:54 AM 57.9 °F - 55.0 °F 90% 30.01 in 10.0 mi SSE 4.6 mph - N/A   Clear
3:54 AM 60.1 °F - 55.9 °F 86% 30.00 in 10.0 mi SSE 4.6 mph - N/A   Mostly Cloudy
4:54 AM 60.1 °F - 55.9 °F 86% 30.00 in 10.0 mi SE 4.6 mph - N/A   Partly Cloudy
5:54 AM 55.0 °F - 55.0 °F 100% 30.01 in 10.0 mi Calm Calm - N/A   Clear
6:54 AM 55.0 °F - 53.1 °F 93% 30.03 in 10.0 mi Calm Calm - N/A   Clear
7:54 AM 54.0 °F - 53.1 °F 97% 30.04 in 7.0 mi Calm Calm - N/A   Clear
8:54 AM 57.0 °F - 55.0 °F 93% 30.04 in 7.0 mi Calm Calm - N/A   Clear
9:54 AM 66.9 °F - 57.9 °F 73% 30.05 in 10.0 mi SSE 8.1 mph - N/A   Clear
10:54 AM 71.1 °F - 55.9 °F 59% 30.05 in 10.0 mi SSE 6.9 mph - N/A   Clear
11:54 AM 77.0 °F - 55.0 °F 47% 30.04 in 10.0 mi South 9.2 mph - N/A   Clear
12:54 PM 79.0 °F - 54.0 °F 42% 30.03 in 10.0 mi SE 6.9 mph - N/A   Clear
1:54 PM 82.9 °F - 48.0 °F 29% 30.01 in 10.0 mi SSW 16.1 mph 26.5 mph N/A   Clear
2:54 PM 82.9 °F - 46.9 °F 28% 29.99 in 10.0 mi South 16.1 mph 25.3 mph N/A   Clear
3:54 PM 82.0 °F - 50.0 °F 33% 29.99 in 10.0 mi SSW 11.5 mph 21.9 mph N/A   Clear
4:17 PM 77.0 °F - 51.8 °F 41% 30.00 in 10.0 mi West 10.4 mph - N/A   Clear
4:54 PM 80.1 °F 79.9 °F 53.1 °F 39% 29.99 in 10.0 mi West 10.4 mph - N/A   Clear
5:54 PM 78.1 °F - 53.1 °F 42% 29.99 in 10.0 mi West 6.9 mph - N/A   Clear
6:54 PM 73.4 °F - 53.6 °F 50% 30.01 in 10.0 mi West 5.8 mph - N/A   Clear
7:54 PM 66.9 °F - 53.1 °F 61% 30.03 in 10.0 mi Calm Calm - N/A   Clear
8:54 PM 59.0 °F - 52.0 °F 78% 30.05 in 10.0 mi Calm Calm - N/A   Clear
9:54 PM 57.9 °F - 51.1 °F 78% 30.06 in 10.0 mi Calm Calm - N/A   Clear
10:54 PM 55.9 °F - 50.0 °F 80% 30.07 in 10.0 mi Calm Calm - N/A   Clear
11:54 PM 52.0 °F - 48.9 °F 89% 30.07 in 10.0 mi Calm Calm - N/A   Clear